Time,TemperatureF,DewpointF,PressureIn,WindDirection,WindDirectionDegrees,WindSpeedMPH,WindSpeedGustMPH,Humidity,HourlyPrecipIn,Conditions,Clouds,dailyrainin,SoftwareType,DateUTC
2013-03-17 00:02:00,69.0,59.0,29.75,South,178,3.0,12.0,71,0.00,,,0.00,,2013-03-17 05:02:00,
2013-03-17 00:12:00,69.0,59.0,29.75,South,178,3.0,12.0,71,0.00,,,0.00,,2013-03-17 05:12:00,
2013-03-17 00:22:00,68.0,59.0,29.76,SSE,168,3.0,12.0,73,0.00,,,0.00,,2013-03-17 05:22:00,
2013-03-17 00:32:00,68.0,59.0,29.76,SSE,168,3.0,12.0,74,0.00,,,0.00,,2013-03-17 05:32:00,
2013-03-17 00:42:00,68.0,59.0,29.76,SSE,168,3.0,12.0,74,0.00,,,0.00,,2013-03-17 05:42:00,
2013-03-17 00:52:00,67.0,59.0,29.76,SSE,162,3.0,14.0,76,0.00,,,0.00,,2013-03-17 05:52:00,
2013-03-17 01:02:00,66.0,59.0,29.76,South,175,3.0,7.0,78,0.00,,,0.00,,2013-03-17 06:02:00,
2013-03-17 01:12:00,66.0,59.0,29.76,South,175,3.0,7.0,78,0.00,,,0.00,,2013-03-17 06:12:00,
2013-03-17 01:22:00,66.0,59.0,29.76,SSE,148,5.0,16.0,79,0.00,,,0.00,,2013-03-17 06:22:00,
2013-03-17 01:32:00,66.0,60.0,29.76,SSE,158,5.0,10.0,80,0.00,,,0.00,,2013-03-17 06:32:00,
2013-03-17 01:42:00,66.0,60.0,29.76,SSE,158,5.0,10.0,80,0.00,,,0.00,,2013-03-17 06:42:00,
2013-03-17 01:52:00,66.0,60.0,29.76,SE,144,2.0,7.0,80,0.00,,,0.00,,2013-03-17 06:52:00,
2013-03-17 02:02:00,66.0,60.0,29.78,SSE,160,2.0,12.0,80,0.00,,,0.00,,2013-03-17 07:02:00,
2013-03-17 02:12:00,66.0,60.0,29.78,SSE,160,2.0,12.0,80,0.00,,,0.00,,2013-03-17 07:12:00,
2013-03-17 02:22:00,66.0,60.0,29.78,SE,141,2.0,12.0,80,0.00,,,0.00,,2013-03-17 07:22:00,
2013-03-17 02:32:00,66.0,60.0,29.78,SE,142,2.0,12.0,80,0.00,,,0.00,,2013-03-17 07:32:00,
2013-03-17 02:42:00,66.0,60.0,29.78,SE,142,2.0,12.0,80,0.00,,,0.00,,2013-03-17 07:42:00,
2013-03-17 02:52:00,66.0,60.0,29.77,South,172,2.0,12.0,80,0.00,,,0.00,,2013-03-17 07:52:00,
2013-03-17 03:02:00,66.0,60.0,29.77,SSW,205,2.0,7.0,80,0.00,,,0.00,,2013-03-17 08:02:00,
2013-03-17 03:13:00,66.0,60.0,29.77,SE,145,2.0,7.0,80,0.00,,,0.00,,2013-03-17 08:13:00,
2013-03-17 03:22:00,66.0,60.0,29.77,SE,145,2.0,7.0,80,0.00,,,0.00,,2013-03-17 08:22:00,
2013-03-17 03:32:00,66.0,60.0,29.76,SE,141,2.0,12.0,80,0.00,,,0.00,,2013-03-17 08:32:00,
2013-03-17 03:42:00,66.0,60.0,29.76,SE,141,2.0,12.0,80,0.00,,,0.00,,2013-03-17 08:42:00,
2013-03-17 03:52:00,66.0,60.0,29.77,ESE,123,1.0,6.0,81,0.00,,,0.00,,2013-03-17 08:52:00,
2013-03-17 04:02:00,65.0,59.0,29.76,SSE,148,1.0,6.0,82,0.00,,,0.00,,2013-03-17 09:02:00,
2013-03-17 04:12:00,65.0,59.0,29.76,SSE,148,1.0,6.0,82,0.00,,,0.00,,2013-03-17 09:12:00,
2013-03-17 04:22:00,65.0,59.0,29.76,SE,141,1.0,3.0,82,0.00,,,0.00,,2013-03-17 09:22:00,
2013-03-17 04:32:00,65.0,59.0,29.76,SSE,161,0.0,3.0,82,0.00,,,0.00,,2013-03-17 09:32:00,
2013-03-17 04:43:00,65.0,59.0,29.76,SSE,161,0.0,3.0,82,0.00,,,0.00,,2013-03-17 09:43:00,
2013-03-17 04:53:00,64.0,59.0,29.76,SSE,148,1.0,10.0,84,0.00,,,0.00,,2013-03-17 09:53:00,
2013-03-17 05:03:00,64.0,59.0,29.76,SSE,148,0.0,3.0,84,0.00,,,0.00,,2013-03-17 10:03:00,
2013-03-17 05:13:00,64.0,59.0,29.76,SSE,148,0.0,3.0,84,0.00,,,0.00,,2013-03-17 10:13:00,
2013-03-17 05:23:00,64.0,59.0,29.77,SE,143,0.0,3.0,85,0.00,,,0.00,,2013-03-17 10:23:00,
2013-03-17 05:33:00,64.0,59.0,29.77,SE,143,0.0,3.0,85,0.00,,,0.00,,2013-03-17 10:33:00,
2013-03-17 05:42:00,64.0,59.0,29.77,SE,143,0.0,3.0,85,0.00,,,0.00,,2013-03-17 10:42:00,
2013-03-17 05:52:00,64.0,59.0,29.77,SSE,148,0.0,3.0,85,0.00,,,0.00,,2013-03-17 10:52:00,
2013-03-17 06:02:00,64.0,59.0,29.77,SE,144,0.0,3.0,85,0.00,,,0.00,,2013-03-17 11:02:00,
2013-03-17 06:12:00,64.0,59.0,29.77,SE,144,0.0,3.0,85,0.00,,,0.00,,2013-03-17 11:12:00,
2013-03-17 06:22:00,64.0,59.0,29.77,SE,144,0.0,3.0,85,0.00,,,0.00,,2013-03-17 11:22:00,
2013-03-17 06:32:00,64.0,59.0,29.78,SE,142,1.0,6.0,85,0.00,,,0.00,,2013-03-17 11:32:00,
2013-03-17 06:42:00,64.0,59.0,29.78,SE,142,1.0,6.0,85,0.00,,,0.00,,2013-03-17 11:42:00,
2013-03-17 06:52:00,64.0,60.0,29.78,SE,133,2.0,6.0,86,0.00,,,0.00,,2013-03-17 11:52:00,
2013-03-17 07:02:00,64.0,60.0,29.78,SE,133,2.0,6.0,86,0.00,,,0.00,,2013-03-17 12:02:00,
2013-03-17 07:12:00,64.0,60.0,29.78,SE,133,2.0,6.0,86,0.00,,,0.00,,2013-03-17 12:12:00,
2013-03-17 07:22:00,64.0,60.0,29.78,SE,140,0.0,3.0,86,0.00,,,0.00,,2013-03-17 12:22:00,
2013-03-17 07:33:00,64.0,60.0,29.78,SE,139,0.0,3.0,86,0.00,,,0.00,,2013-03-17 12:33:00,
2013-03-17 07:43:00,64.0,60.0,29.78,SE,139,0.0,3.0,86,0.00,,,0.00,,2013-03-17 12:43:00,
2013-03-17 07:52:00,64.0,60.0,29.79,SE,132,1.0,5.0,86,0.00,,,0.00,,2013-03-17 12:52:00,
2013-03-17 08:02:00,64.0,60.0,29.79,SE,133,0.0,3.0,86,0.00,,,0.00,,2013-03-17 13:02:00,
2013-03-17 08:12:00,64.0,60.0,29.79,SE,133,0.0,3.0,86,0.00,,,0.00,,2013-03-17 13:12:00,
2013-03-17 08:22:00,64.0,60.0,29.79,SE,145,1.0,5.0,86,0.00,,,0.00,,2013-03-17 13:22:00,
2013-03-17 08:32:00,64.0,59.0,29.79,SE,132,2.0,7.0,85,0.00,,,0.00,,2013-03-17 13:32:00,
2013-03-17 08:42:00,64.0,59.0,29.79,SE,132,2.0,7.0,85,0.00,,,0.00,,2013-03-17 13:42:00,
2013-03-17 08:52:00,65.0,60.0,29.79,ESE,108,1.0,6.0,85,0.00,,,0.00,,2013-03-17 13:52:00,
2013-03-17 09:02:00,65.0,60.0,29.80,SE,131,1.0,3.0,84,0.00,,,0.00,,2013-03-17 14:02:00,
2013-03-17 09:12:00,65.0,60.0,29.80,SE,131,1.0,3.0,84,0.00,,,0.00,,2013-03-17 14:12:00,
2013-03-17 09:22:00,65.0,60.0,29.80,SE,132,0.0,3.0,84,0.00,,,0.00,,2013-03-17 14:22:00,
2013-03-17 09:32:00,66.0,60.0,29.80,SSE,154,1.0,3.0,82,0.00,,,0.00,,2013-03-17 14:32:00,
2013-03-17 09:42:00,66.0,60.0,29.80,SSE,154,1.0,3.0,82,0.00,,,0.00,,2013-03-17 14:42:00,
2013-03-17 09:53:00,66.0,60.0,29.80,SSE,167,1.0,6.0,81,0.00,,,0.00,,2013-03-17 14:53:00,
2013-03-17 10:02:00,66.0,60.0,29.81,South,175,0.0,1.0,80,0.00,,,0.00,,2013-03-17 15:02:00,
2013-03-17 10:12:00,66.0,60.0,29.81,South,175,0.0,1.0,80,0.00,,,0.00,,2013-03-17 15:12:00,
2013-03-17 10:23:00,66.0,60.0,29.82,West,261,0.0,6.0,80,0.00,,,0.00,,2013-03-17 15:23:00,
2013-03-17 10:33:00,66.0,59.0,29.82,WNW,282,0.0,1.0,79,0.00,,,0.00,,2013-03-17 15:33:00,
2013-03-17 10:42:00,66.0,59.0,29.82,WNW,282,0.0,1.0,79,0.00,,,0.00,,2013-03-17 15:42:00,
2013-03-17 10:52:00,66.0,59.0,29.82,West,281,1.0,3.0,78,0.00,,,0.00,,2013-03-17 15:52:00,
2013-03-17 11:03:00,66.0,57.0,29.83,West,268,3.0,7.0,74,0.00,,,0.00,,2013-03-17 16:03:00,
2013-03-17 11:12:00,66.0,57.0,29.83,West,268,3.0,7.0,74,0.00,,,0.00,,2013-03-17 16:12:00,
2013-03-17 11:22:00,65.0,55.0,29.83,West,268,3.0,7.0,69,0.00,,,0.00,,2013-03-17 16:22:00,
2013-03-17 11:33:00,65.0,55.0,29.83,West,271,1.0,6.0,70,0.00,,,0.00,,2013-03-17 16:33:00,
2013-03-17 11:42:00,65.0,55.0,29.83,West,271,1.0,6.0,70,0.00,,,0.00,,2013-03-17 16:42:00,
2013-03-17 11:52:00,67.0,56.0,29.81,West,275,1.0,5.0,69,0.00,,,0.00,,2013-03-17 16:52:00,
2013-03-17 12:02:00,70.0,59.0,29.80,SW,225,0.0,6.0,67,0.00,,,0.00,,2013-03-17 17:02:00,
2013-03-17 12:12:00,70.0,59.0,29.80,SW,225,0.0,6.0,67,0.00,,,0.00,,2013-03-17 17:12:00,
2013-03-17 12:22:00,70.0,59.0,29.80,West,261,2.0,6.0,68,0.00,,,0.00,,2013-03-17 17:22:00,
2013-03-17 12:33:00,72.0,60.0,29.80,West,272,2.0,7.0,66,0.00,,,0.00,,2013-03-17 17:33:00,
2013-03-17 12:42:00,72.0,60.0,29.80,West,272,2.0,7.0,66,0.00,,,0.00,,2013-03-17 17:42:00,
2013-03-17 12:52:00,72.0,60.0,29.80,SW,235,2.0,9.0,65,0.00,,,0.00,,2013-03-17 17:52:00,
2013-03-17 13:02:00,73.0,60.0,29.79,SSW,192,1.0,10.0,63,0.00,,,0.00,,2013-03-17 18:02:00,
2013-03-17 13:12:00,73.0,60.0,29.79,SSW,192,1.0,10.0,63,0.00,,,0.00,,2013-03-17 18:12:00,
2013-03-17 13:22:00,74.0,60.0,29.78,West,270,1.0,10.0,62,0.00,,,0.00,,2013-03-17 18:22:00,
2013-03-17 13:32:00,74.0,60.0,29.78,SW,226,2.0,12.0,61,0.00,,,0.00,,2013-03-17 18:32:00,
2013-03-17 13:42:00,74.0,60.0,29.78,SW,226,2.0,12.0,61,0.00,,,0.00,,2013-03-17 18:42:00,
2013-03-17 13:52:00,74.0,60.0,29.78,SW,233,1.0,7.0,61,0.00,,,0.00,,2013-03-17 18:52:00,
2013-03-17 14:02:00,73.0,59.0,29.78,West,267,5.0,12.0,62,0.00,,,0.00,,2013-03-17 19:02:00,
2013-03-17 14:12:00,73.0,59.0,29.78,West,267,5.0,12.0,62,0.00,,,0.00,,2013-03-17 19:12:00,
2013-03-17 14:22:00,73.0,59.0,29.77,West,269,4.0,15.0,62,0.00,,,0.00,,2013-03-17 19:22:00,
2013-03-17 14:33:00,72.0,58.0,29.76,West,261,6.0,13.0,61,0.00,,,0.00,,2013-03-17 19:33:00,
2013-03-17 14:42:00,72.0,58.0,29.76,West,261,6.0,13.0,61,0.00,,,0.00,,2013-03-17 19:42:00,
2013-03-17 14:53:00,71.0,57.0,29.76,WNW,284,5.0,14.0,61,0.00,,,0.00,,2013-03-17 19:53:00,
2013-03-17 15:02:00,71.0,56.0,29.75,West,262,6.0,13.0,59,0.00,,,0.00,,2013-03-17 20:02:00,
2013-03-17 15:12:00,71.0,56.0,29.75,West,262,6.0,13.0,59,0.00,,,0.00,,2013-03-17 20:12:00,
2013-03-17 15:22:00,71.0,56.0,29.74,West,272,5.0,13.0,59,0.00,,,0.00,,2013-03-17 20:22:00,
2013-03-17 15:32:00,71.0,55.0,29.73,West,263,5.0,13.0,57,0.00,,,0.00,,2013-03-17 20:32:00,
2013-03-17 15:42:00,71.0,55.0,29.73,West,263,5.0,13.0,57,0.00,,,0.00,,2013-03-17 20:42:00,
2013-03-17 15:52:00,71.0,55.0,29.73,West,272,5.0,8.0,58,0.00,,,0.00,,2013-03-17 20:52:00,
2013-03-17 16:02:00,71.0,54.0,29.72,West,277,3.0,9.0,56,0.00,,,0.00,,2013-03-17 21:02:00,
2013-03-17 16:12:00,71.0,54.0,29.72,West,277,3.0,9.0,56,0.00,,,0.00,,2013-03-17 21:12:00,
2013-03-17 16:22:00,72.0,55.0,29.72,West,267,5.0,12.0,55,0.00,,,0.00,,2013-03-17 21:22:00,
2013-03-17 16:33:00,72.0,55.0,29.72,WNW,288,5.0,12.0,55,0.00,,,0.00,,2013-03-17 21:33:00,
2013-03-17 16:43:00,72.0,55.0,29.72,WNW,288,5.0,12.0,55,0.00,,,0.00,,2013-03-17 21:43:00,
2013-03-17 16:52:00,72.0,54.0,29.72,WNW,285,5.0,12.0,54,0.00,,,0.00,,2013-03-17 21:52:00,
2013-03-17 17:03:00,72.0,55.0,29.71,West,264,5.0,12.0,55,0.00,,,0.00,,2013-03-17 22:03:00,
2013-03-17 17:12:00,72.0,55.0,29.71,West,263,5.0,14.0,56,0.00,,,0.00,,2013-03-17 22:12:00,
2013-03-17 17:23:00,72.0,55.0,29.71,West,263,5.0,14.0,56,0.00,,,0.00,,2013-03-17 22:23:00,
2013-03-17 17:33:00,72.0,55.0,29.71,West,275,6.0,13.0,55,0.00,,,0.00,,2013-03-17 22:33:00,
2013-03-17 17:42:00,72.0,55.0,29.71,West,275,6.0,13.0,55,0.00,,,0.00,,2013-03-17 22:42:00,
2013-03-17 17:52:00,72.0,55.0,29.71,West,277,6.0,15.0,55,0.00,,,0.00,,2013-03-17 22:52:00,
2013-03-17 18:02:00,72.0,55.0,29.71,West,266,5.0,12.0,55,0.00,,,0.00,,2013-03-17 23:02:00,
2013-03-17 18:12:00,72.0,55.0,29.71,West,266,5.0,12.0,55,0.00,,,0.00,,2013-03-17 23:12:00,
2013-03-17 18:22:00,72.0,55.0,29.71,West,264,5.0,13.0,55,0.00,,,0.00,,2013-03-17 23:22:00,
2013-03-17 18:32:00,72.0,55.0,29.71,West,273,3.0,12.0,56,0.00,,,0.00,,2013-03-17 23:32:00,
2013-03-17 18:42:00,72.0,55.0,29.71,West,273,3.0,12.0,56,0.00,,,0.00,,2013-03-17 23:42:00,
2013-03-17 18:53:00,72.0,55.0,29.71,West,274,3.0,12.0,55,0.00,,,0.00,,2013-03-17 23:53:00,
2013-03-17 19:03:00,72.0,55.0,29.71,West,269,3.0,9.0,55,0.00,,,0.00,,2013-03-18 00:03:00,
2013-03-17 19:12:00,72.0,55.0,29.71,West,269,3.0,9.0,55,0.00,,,0.00,,2013-03-18 00:12:00,
2013-03-17 19:22:00,72.0,55.0,29.71,WNW,289,3.0,6.0,55,0.00,,,0.00,,2013-03-18 00:22:00,
2013-03-17 19:33:00,71.0,54.0,29.71,West,269,2.0,7.0,56,0.00,,,0.00,,2013-03-18 00:33:00,
2013-03-17 19:42:00,71.0,54.0,29.71,West,269,2.0,7.0,56,0.00,,,0.00,,2013-03-18 00:42:00,
2013-03-17 19:52:00,70.0,54.0,29.71,West,271,3.0,6.0,56,0.00,,,0.00,,2013-03-18 00:52:00,
2013-03-17 20:02:00,69.0,54.0,29.71,West,270,1.0,3.0,58,0.00,,,0.00,,2013-03-18 01:02:00,
2013-03-17 20:12:00,69.0,54.0,29.71,West,270,1.0,3.0,58,0.00,,,0.00,,2013-03-18 01:12:00,
2013-03-17 20:22:00,69.0,54.0,29.71,West,270,2.0,5.0,59,0.00,,,0.00,,2013-03-18 01:22:00,
2013-03-17 20:32:00,68.0,54.0,29.71,West,269,0.0,2.0,60,0.00,,,0.00,,2013-03-18 01:32:00,
2013-03-17 20:42:00,68.0,54.0,29.71,West,269,0.0,2.0,60,0.00,,,0.00,,2013-03-18 01:42:00,
2013-03-17 20:52:00,68.0,54.0,29.72,West,270,0.0,0.0,61,0.00,,,0.00,,2013-03-18 01:52:00,
2013-03-17 21:02:00,67.0,54.0,29.72,West,270,0.0,0.0,63,0.00,,,0.00,,2013-03-18 02:02:00,
2013-03-17 21:12:00,67.0,54.0,29.72,West,270,0.0,0.0,63,0.00,,,0.00,,2013-03-18 02:12:00,
2013-03-17 21:22:00,66.0,53.0,29.72,West,270,0.0,0.0,64,0.00,,,0.00,,2013-03-18 02:22:00,
2013-03-17 21:32:00,65.0,53.0,29.72,West,270,0.0,1.0,66,0.00,,,0.00,,2013-03-18 02:32:00,
2013-03-17 21:42:00,65.0,53.0,29.72,West,270,0.0,1.0,66,0.00,,,0.00,,2013-03-18 02:42:00,
2013-03-17 21:52:00,64.0,53.0,29.72,West,270,0.0,0.0,67,0.00,,,0.00,,2013-03-18 02:52:00,
2013-03-17 22:02:00,64.0,53.0,29.72,West,269,0.0,0.0,68,0.00,,,0.00,,2013-03-18 03:02:00,
2013-03-17 22:11:00,64.0,53.0,29.72,West,269,0.0,0.0,68,0.00,,,0.00,,2013-03-18 03:11:00,
2013-03-17 22:22:00,63.0,53.0,29.73,West,270,0.0,0.0,70,0.00,,,0.00,,2013-03-18 03:22:00,
2013-03-17 22:33:00,62.0,53.0,29.75,West,270,0.0,1.0,72,0.00,,,0.00,,2013-03-18 03:33:00,
2013-03-17 22:42:00,62.0,53.0,29.75,West,270,0.0,1.0,72,0.00,,,0.00,,2013-03-18 03:42:00,
2013-03-17 22:53:00,61.0,52.0,29.75,West,270,0.0,1.0,73,0.00,,,0.00,,2013-03-18 03:53:00,
2013-03-17 23:03:00,60.0,52.0,29.75,West,270,0.0,2.0,75,0.00,,,0.00,,2013-03-18 04:03:00,
2013-03-17 23:13:00,60.0,52.0,29.75,West,270,0.0,2.0,75,0.00,,,0.00,,2013-03-18 04:13:00,
2013-03-17 23:22:00,60.0,52.0,29.75,West,269,0.0,2.0,74,0.00,,,0.00,,2013-03-18 04:22:00,
2013-03-17 23:33:00,60.0,51.0,29.75,West,270,0.0,0.0,73,0.00,,,0.00,,2013-03-18 04:33:00,
2013-03-17 23:42:00,60.0,51.0,29.75,West,270,0.0,0.0,73,0.00,,,0.00,,2013-03-18 04:42:00,
2013-03-17 23:52:00,60.0,51.0,29.74,West,270,0.0,0.0,73,0.00,,,0.00,,2013-03-18 04:52:00,